Content
SEND FEEDBACK

Daily
Averages
Monthly
Summary
Mexico

LEONA VICARIO, QUINTANA ROO


Home > North America > Mexico > Quintana Roo
Elevation: 26 feet     Latitude: 20 59N     Longitude: 087 12W

WEATHER
 
SELECT A DAY
Number of Records: 163,700;   Date Range: 1/1/95 - 7/27/14
 
SHARE

PRINT THIS DATA

[ ← Previous Day ]
WEATHER ALMANAC - JULY 28, 2013
[ Next Day → ]
[ °C ]   °F
Weather ElementAverageHighLow
Temperature81 °F87.8 °F (1:41 pm)69.8 °F (6:45 am)
Dewpoint73.6 °F75.2 °F (11:42 am)68 °F (6:45 am)
Humidity79.5 %100 % (2:41 am)62 % (12:41 pm)
Barometer30.00 in30.05 in (10:47 pm)29.96 in (3:42 am)
Wind Speed5.2 mph10.4 mph (12:41 pm)
Weather ElementAverage
Visibility7 mi
Wind DirectionE (85.2 °)

Weather ElementTotal
Precipitation---
Cooling Degree Days13.8 (Base 65)
Growing Degree Days28.8 (Base 50)
Averaged from 23 records on July 28, 2013
WEATHER CONDITIONS BREAKOUT
WIND DIRECTION BREAKOUT
WEATHER BY HOUR - JULY 28, 2013
[ °C ]   °F
Local TimeTemperatureDewpointHumidityBarometerVisibilityWind DirectionWind SpeedGust SpeedPrecipitationEventsConditions
1:45 AM75.2 °F73.4 °F94 %29.97 in7.0 miCalmScattered Clouds
2:41 AM73.4 °F73.4 °F100 %29.97 in7.0 miCalmScattered Clouds
3:42 AM71.6 °F71.6 °F100 %29.96 in7.0 miCalmPartly Cloudy
4:40 AM71.6 °F71.6 °F100 %29.96 in7.0 miCalmPartly Cloudy
5:41 AM71.6 °F69.8 °F94 %29.96 in7.0 miCalmScattered Clouds
6:45 AM69.8 °F68.0 °F94 %29.96 in7.0 miNorth (350°)2.3 mphScattered Clouds
7:42 AM75.2 °F73.4 °F94 %29.99 in7.0 miCalmScattered Clouds
8:41 AM84.2 °F73.4 °F70 %30.01 in7.0 miESE (110°)6.9 mphScattered Clouds
9:44 AM86.0 °F73.4 °F66 %30.02 in7.0 miEast (100°)8.1 mphScattered Clouds
10:45 AM86.0 °F73.4 °F66 %30.02 in7.0 miSE (130°)9.2 mphScattered Clouds
11:42 AM86.0 °F75.2 °F70 %30.03 in7.0 miSE (140°)9.2 mphScattered Clouds
12:41 PM86.0 °F71.6 °F62 %30.03 in7.0 miSE (130°)10.4 mphScattered Clouds
1:41 PM87.8 °F73.4 °F62 %30.00 in7.0 miESE (110°)9.2 mphScattered Clouds
2:44 PM87.8 °F75.2 °F66 %29.99 in7.0 miEast (90°)5.8 mphScattered Clouds
3:46 PM87.8 °F75.2 °F66 %29.98 in7.0 miESE (110°)6.9 mphScattered Clouds
4:53 PM87.8 °F75.2 °F66 %29.98 in7.0 miEast (90°)8.1 mphScattered Clouds
5:44 PM86.0 °F75.2 °F70 %29.98 in7.0 miEast (80°)8.1 mphScattered Clouds
6:46 PM84.2 °F75.2 °F74 %30.00 in7.0 miEast (100°)6.9 mphScattered Clouds
7:42 PM82.4 °F75.2 °F79 %30.00 in7.0 miEast (90°)5.8 mphScattered Clouds
8:40 PM80.6 °F75.2 °F84 %30.02 in7.0 miENE (60°)4.6 mphScattered Clouds
9:48 PM80.6 °F75.2 °F84 %29.99 in7.0 miEast (90°)5.8 mphScattered Clouds
10:47 PM80.6 °F75.2 °F84 %30.05 in7.0 miEast (80°)5.8 mphPartly Cloudy
11:46 PM80.6 °F75.2 °F84 %30.05 in7.0 miEast (100°)5.8 mphClear
Hourly data recorded from MMUN, located miles away from Leona Vicario, Quintana Roo







STORIES FROM OUR PARTNERS